EPE786 OPKC-OPLA

Flight info

Callsign EPE786
Flight time 1h 26m
Altitude 33000
Route BADUL J112 MIMAL
Aircraft B733/M-SDE2E3FHIRW/S

Departure

Time 2026-04-25 20:23
Airport Jinnah International Airport (OPKC)

Arrival

Time 2026-04-25 21:49
Airport Allama Iqbal International Airport (OPLA)
Time Latitude Longitude Altitude Speed Heading
2026-04-25 19:46 24.90162 67.15937 82 ft 0 kts 164°
2026-04-25 20:10 24.90173 67.15933 82 ft 2 kts 165°
2026-04-25 20:10 24.90186 67.15929 82 ft 0 kts 165°
2026-04-25 20:10 24.90202 67.15926 82 ft 3 kts 168°
2026-04-25 20:10 24.90227 67.15919 82 ft 3 kts 166°
2026-04-25 20:11 24.90253 67.15912 82 ft 3 kts 163°
2026-04-25 20:11 24.90278 67.15903 81 ft 2 kts 155°
2026-04-25 20:11 24.90280 67.15902 81 ft 0 kts 155°
2026-04-25 20:15 24.90278 67.15904 81 ft 1 kts 141°
2026-04-25 20:15 24.90279 67.15920 82 ft 3 kts 71°
2026-04-25 20:15 24.90287 67.15943 82 ft 3 kts 72°
2026-04-25 20:16 24.90298 67.15984 83 ft 7 kts 73°
2026-04-25 20:16 24.90320 67.16071 83 ft 14 kts 75°
2026-04-25 20:16 24.90349 67.16186 83 ft 15 kts 74°
2026-04-25 20:16 24.90378 67.16301 83 ft 15 kts 75°
2026-04-25 20:17 24.90408 67.16412 85 ft 14 kts 72°
2026-04-25 20:17 24.90435 67.16523 84 ft 15 kts 75°
2026-04-25 20:17 24.90465 67.16638 84 ft 16 kts 75°
2026-04-25 20:17 24.90495 67.16756 85 ft 15 kts 75°
2026-04-25 20:18 24.90520 67.16868 86 ft 14 kts 75°
2026-04-25 20:18 24.90551 67.16979 86 ft 15 kts 73°
2026-04-25 20:18 24.90578 67.17090 88 ft 14 kts 75°
2026-04-25 20:18 24.90604 67.17191 90 ft 13 kts 73°
2026-04-25 20:19 24.90630 67.17288 91 ft 12 kts 74°
2026-04-25 20:19 24.90655 67.17375 92 ft 11 kts 68°
2026-04-25 20:19 24.90708 67.17439 94 ft 11 kts 32°
2026-04-25 20:19 24.90775 67.17484 95 ft 10 kts 30°
2026-04-25 20:20 24.90836 67.17492 96 ft 6 kts 338°
2026-04-25 20:20 24.90863 67.17449 96 ft 7 kts 272°
2026-04-25 20:20 24.90861 67.17429 96 ft 0 kts 257°
2026-04-25 20:21 24.90856 67.17406 96 ft 7 kts 256°
2026-04-25 20:22 24.90794 67.17165 92 ft 62 kts 255°
2026-04-25 20:22 24.90684 67.16731 85 ft 103 kts 255°
2026-04-25 20:22 24.90316 67.15291 89 ft 163 kts 254°
2026-04-25 20:22 24.89997 67.14027 394 ft 172 kts 254°
2026-04-25 20:23 24.89649 67.12730 897 ft 171 kts 255°
2026-04-25 20:23 24.89216 67.11533 1482 ft 167 kts 237°
2026-04-25 20:23 24.88187 67.10781 1873 ft 185 kts 197°
2026-04-25 20:23 24.86875 67.10931 2244 ft 202 kts 158°
2026-04-25 20:24 24.85770 67.11995 2559 ft 218 kts 121°
2026-04-25 20:24 24.85349 67.13637 2833 ft 232 kts 86°
2026-04-25 20:24 24.85802 67.15376 3143 ft 239 kts 52°
2026-04-25 20:24 24.86976 67.16691 3561 ft 243 kts 34°
2026-04-25 20:25 24.88424 67.17876 3988 ft 257 kts 32°
2026-04-25 20:25 24.89933 67.19051 4388 ft 273 kts 33°
2026-04-25 20:25 24.91477 67.20364 4803 ft 282 kts 36°
2026-04-25 20:25 24.93037 67.21716 5432 ft 288 kts 37°
2026-04-25 20:26 24.94608 67.23070 6141 ft 289 kts 37°
2026-04-25 20:26 24.96216 67.24451 6850 ft 290 kts 37°
2026-04-25 20:26 24.97795 67.25807 7610 ft 288 kts 37°
2026-04-25 20:26 24.99365 67.27153 8355 ft 287 kts 38°
2026-04-25 20:27 25.00958 67.28519 9095 ft 287 kts 38°
2026-04-25 20:27 25.02527 67.29863 9772 ft 289 kts 38°
2026-04-25 20:27 25.04160 67.31262 10131 ft 304 kts 38°
2026-04-25 20:27 25.05638 67.32529 10214 ft 324 kts 38°
2026-04-25 20:28 25.07457 67.34088 10573 ft 337 kts 38°
2026-04-25 20:28 25.09339 67.35702 11235 ft 340 kts 38°
2026-04-25 20:28 25.11207 67.37301 11874 ft 343 kts 38°
2026-04-25 20:28 25.13101 67.38918 12509 ft 346 kts 38°
2026-04-25 20:29 25.15007 67.40550 13172 ft 348 kts 38°
2026-04-25 20:29 25.16925 67.42195 13778 ft 352 kts 39°
2026-04-25 20:29 25.18871 67.43866 14330 ft 357 kts 38°
2026-04-25 20:29 25.20867 67.45582 14908 ft 361 kts 38°
2026-04-25 20:30 25.22188 67.46717 15272 ft 365 kts 38°
2026-04-25 20:30 25.24832 67.49090 16005 ft 370 kts 40°
2026-04-25 20:30 25.26824 67.50916 16529 ft 374 kts 40°
2026-04-25 20:30 25.28842 67.52764 17040 ft 379 kts 40°
2026-04-25 20:31 25.30885 67.54633 17542 ft 383 kts 40°
2026-04-25 20:31 25.32937 67.56511 18082 ft 386 kts 40°
2026-04-25 20:31 25.35040 67.58434 18618 ft 389 kts 40°
2026-04-25 20:31 25.37126 67.60344 19131 ft 392 kts 40°
2026-04-25 20:32 25.39230 67.62270 19633 ft 395 kts 40°
2026-04-25 20:32 25.41361 67.64222 20143 ft 398 kts 40°
2026-04-25 20:32 25.43503 67.66188 20626 ft 402 kts 40°
2026-04-25 20:32 25.45656 67.68174 21125 ft 404 kts 40°
2026-04-25 20:33 25.47839 67.70183 21604 ft 407 kts 39°
2026-04-25 20:33 25.50020 67.72187 22104 ft 408 kts 39°
2026-04-25 20:33 25.52206 67.74195 22538 ft 412 kts 39°
2026-04-25 20:33 25.53698 67.75566 22820 ft 414 kts 39°
2026-04-25 20:34 25.56674 67.78302 23426 ft 417 kts 39°
2026-04-25 20:34 25.58912 67.80360 23886 ft 420 kts 39°
2026-04-25 20:34 25.61159 67.82427 24305 ft 422 kts 39°
2026-04-25 20:34 25.63427 67.84515 24734 ft 424 kts 39°
2026-04-25 20:35 25.65696 67.86604 25161 ft 426 kts 39°
2026-04-25 20:35 25.68009 67.88737 25563 ft 429 kts 39°
2026-04-25 20:35 25.70306 67.90855 25992 ft 430 kts 39°
2026-04-25 20:35 25.72622 67.92991 26345 ft 433 kts 39°
2026-04-25 20:36 25.74940 67.95131 26766 ft 435 kts 39°
2026-04-25 20:36 25.77266 67.97278 27158 ft 436 kts 39°
2026-04-25 20:36 25.79603 67.99438 27511 ft 439 kts 40°
2026-04-25 20:36 25.81984 68.01638 27888 ft 441 kts 40°
2026-04-25 20:37 25.84339 68.03817 28293 ft 442 kts 40°
2026-04-25 20:37 25.86700 68.06001 28640 ft 445 kts 40°
2026-04-25 20:37 25.89102 68.08226 29092 ft 445 kts 40°
2026-04-25 20:37 25.91466 68.10416 29640 ft 443 kts 40°
2026-04-25 20:38 25.93816 68.12595 30128 ft 441 kts 39°
2026-04-25 20:38 25.96198 68.14804 30576 ft 440 kts 39°
2026-04-25 20:38 25.98546 68.16982 30995 ft 439 kts 39°
2026-04-25 20:38 26.00885 68.19154 31423 ft 438 kts 39°
2026-04-25 20:39 26.03214 68.21318 31836 ft 437 kts 39°
2026-04-25 20:39 26.05550 68.23489 32209 ft 437 kts 39°
2026-04-25 20:39 26.07871 68.25648 32568 ft 436 kts 38°
2026-04-25 20:39 26.09450 68.27116 32732 ft 438 kts 38°
2026-04-25 20:40 26.14921 68.32191 32800 ft 439 kts 38°
2026-04-25 20:40 26.19625 68.36570 32794 ft 438 kts 38°
2026-04-25 20:41 26.24369 68.40810 32796 ft 438 kts 36°
2026-04-25 20:41 26.29258 68.44946 32790 ft 437 kts 36°
2026-04-25 20:42 26.34088 68.49047 32790 ft 436 kts 36°
2026-04-25 20:42 26.38913 68.53153 32789 ft 436 kts 36°
2026-04-25 20:43 26.43739 68.57264 32787 ft 436 kts 36°
2026-04-25 20:43 26.48589 68.61400 32758 ft 433 kts 36°
2026-04-25 20:44 26.53384 68.65494 32729 ft 432 kts 35°
2026-04-25 20:44 26.58167 68.69602 32721 ft 433 kts 36°
2026-04-25 20:45 26.62939 68.73684 32733 ft 433 kts 35°
2026-04-25 20:45 26.67781 68.77808 32732 ft 433 kts 34°
2026-04-25 20:46 26.72570 68.81889 32731 ft 433 kts 35°
2026-04-25 20:46 26.77384 68.85995 32740 ft 431 kts 35°
2026-04-25 20:47 26.82183 68.90091 32730 ft 432 kts 34°
2026-04-25 20:47 26.86961 68.94176 32734 ft 431 kts 34°
2026-04-25 20:48 26.91728 68.98254 32733 ft 430 kts 34°
2026-04-25 20:48 26.96484 69.02327 32732 ft 430 kts 34°
2026-04-25 20:49 27.01281 69.06440 32725 ft 433 kts 34°
2026-04-25 20:49 27.06129 69.10601 32718 ft 445 kts 36°
2026-04-25 20:50 27.11086 69.14861 32699 ft 453 kts 36°
2026-04-25 20:50 27.16058 69.19122 32740 ft 442 kts 37°
2026-04-25 20:51 27.20871 69.23265 32729 ft 431 kts 37°
2026-04-25 20:51 27.25637 69.27374 32719 ft 435 kts 35°
2026-04-25 20:52 27.29633 69.30898 32733 ft 437 kts 36°
2026-04-25 20:52 27.35196 69.35861 32731 ft 437 kts 36°
2026-04-25 20:53 27.39984 69.40125 32732 ft 438 kts 36°
2026-04-25 20:53 27.44749 69.44372 32728 ft 438 kts 36°
2026-04-25 20:54 27.49526 69.48634 32735 ft 440 kts 36°
2026-04-25 20:54 27.54320 69.52917 32740 ft 439 kts 36°
2026-04-25 20:55 27.59143 69.57231 32735 ft 439 kts 36°
2026-04-25 20:55 27.63941 69.61526 32745 ft 441 kts 36°
2026-04-25 20:56 27.68734 69.65824 32736 ft 442 kts 37°
2026-04-25 20:56 27.73556 69.70174 32760 ft 441 kts 36°
2026-04-25 20:57 27.78383 69.74516 32759 ft 442 kts 37°
2026-04-25 20:57 27.83214 69.78862 32756 ft 442 kts 37°
2026-04-25 20:58 27.88026 69.83195 32757 ft 443 kts 37°
2026-04-25 20:58 27.92848 69.87544 32759 ft 444 kts 37°
2026-04-25 20:59 27.97694 69.91920 32753 ft 443 kts 37°
2026-04-25 20:59 28.02525 69.96285 32746 ft 445 kts 37°
2026-04-25 21:00 28.06546 69.99923 32735 ft 445 kts 37°
2026-04-25 21:01 28.14535 70.07146 32732 ft 435 kts 37°
2026-04-25 21:01 28.19279 70.11444 32731 ft 435 kts 36°
2026-04-25 21:02 28.24000 70.15733 32734 ft 434 kts 36°
2026-04-25 21:02 28.28697 70.20005 32722 ft 436 kts 36°
2026-04-25 21:03 28.33448 70.24332 32734 ft 437 kts 36°
2026-04-25 21:03 28.38048 70.28828 32734 ft 440 kts 44°
2026-04-25 21:04 28.42181 70.33995 32733 ft 441 kts 45°
2026-04-25 21:04 28.46329 70.39108 32736 ft 441 kts 44°
2026-04-25 21:05 28.50489 70.44204 32740 ft 441 kts 44°
2026-04-25 21:05 28.54679 70.49341 32739 ft 441 kts 44°
2026-04-25 21:06 28.58854 70.54466 32745 ft 442 kts 44°
2026-04-25 21:06 28.63055 70.59627 32740 ft 444 kts 45°
2026-04-25 21:07 28.67245 70.64784 32745 ft 444 kts 45°
2026-04-25 21:07 28.71427 70.69958 32739 ft 444 kts 45°
2026-04-25 21:08 28.75645 70.75169 32746 ft 446 kts 45°
2026-04-25 21:08 28.79857 70.80373 32741 ft 445 kts 45°
2026-04-25 21:09 28.86157 70.88168 32741 ft 446 kts 45°
2026-04-25 21:09 28.90337 70.93346 32743 ft 447 kts 45°
2026-04-25 21:10 28.94567 70.98596 32743 ft 446 kts 45°
2026-04-25 21:10 28.98750 71.03793 32745 ft 446 kts 45°
2026-04-25 21:11 29.02940 71.09006 32737 ft 447 kts 45°
2026-04-25 21:11 29.07166 71.14270 32753 ft 447 kts 45°
2026-04-25 21:12 29.11410 71.19556 32726 ft 448 kts 45°
2026-04-25 21:12 29.14883 71.23874 32748 ft 440 kts 44°
2026-04-25 21:13 29.19705 71.29896 32729 ft 435 kts 44°
2026-04-25 21:13 29.23786 71.35006 32731 ft 437 kts 45°
2026-04-25 21:14 29.27906 71.40170 32749 ft 440 kts 44°
2026-04-25 21:14 29.32033 71.45448 32769 ft 445 kts 44°
2026-04-25 21:15 29.36164 71.50794 32765 ft 447 kts 44°
2026-04-25 21:15 29.40278 71.56093 32757 ft 446 kts 44°
2026-04-25 21:16 29.44419 71.61430 32758 ft 447 kts 44°
2026-04-25 21:16 29.48572 71.66795 32730 ft 447 kts 44°
2026-04-25 21:17 29.52705 71.72159 32757 ft 449 kts 44°
2026-04-25 21:17 29.56824 71.77492 32766 ft 447 kts 44°
2026-04-25 21:18 29.60980 71.82878 32758 ft 448 kts 44°
2026-04-25 21:18 29.65098 71.88222 32757 ft 447 kts 44°
2026-04-25 21:19 29.69229 71.93589 32757 ft 447 kts 44°
2026-04-25 21:19 29.73376 71.98984 32761 ft 447 kts 44°
2026-04-25 21:20 29.76799 72.03443 32755 ft 447 kts 44°
2026-04-25 21:20 29.81630 72.09744 32764 ft 448 kts 44°
2026-04-25 21:21 29.85789 72.15178 32760 ft 448 kts 44°
2026-04-25 21:21 29.87615 72.18095 32744 ft 457 kts 61°
2026-04-25 21:21 29.88714 72.21561 32782 ft 464 kts 69°
2026-04-25 21:22 29.90653 72.28690 32777 ft 463 kts 68°
2026-04-25 21:22 29.92742 72.35709 32772 ft 463 kts 67°
2026-04-25 21:23 29.94857 72.42727 32779 ft 463 kts 66°
2026-04-25 21:23 29.96972 72.49760 32778 ft 464 kts 67°
2026-04-25 21:24 29.99081 72.56795 32770 ft 463 kts 66°
2026-04-25 21:24 30.01262 72.63734 32753 ft 458 kts 57°
2026-04-25 21:25 30.03121 72.66673 32766 ft 448 kts 42°
2026-04-25 21:25 30.05302 72.69284 32751 ft 447 kts 41°
2026-04-25 21:25 30.09527 72.74505 32758 ft 445 kts 44°
2026-04-25 21:26 30.13681 72.79823 32758 ft 441 kts 44°
2026-04-25 21:26 30.17791 72.85118 32779 ft 445 kts 43°
2026-04-25 21:27 30.21901 72.90446 32753 ft 445 kts 43°
2026-04-25 21:27 30.26018 72.95799 32778 ft 445 kts 43°
2026-04-25 21:28 30.30107 73.01119 32765 ft 444 kts 43°
2026-04-25 21:28 30.32176 73.03812 32470 ft 444 kts 42°
2026-04-25 21:28 30.34218 73.06471 31540 ft 446 kts 43°
2026-04-25 21:29 30.36266 73.09141 30610 ft 446 kts 42°
2026-04-25 21:29 30.38310 73.11807 29752 ft 444 kts 43°
2026-04-25 21:29 30.40344 73.14464 28939 ft 442 kts 43°
2026-04-25 21:29 30.42413 73.17164 28204 ft 448 kts 43°
2026-04-25 21:30 30.44515 73.19904 27627 ft 459 kts 43°
2026-04-25 21:30 30.46605 73.22643 27035 ft 451 kts 43°
2026-04-25 21:30 30.48654 73.25330 26425 ft 442 kts 43°
2026-04-25 21:30 30.49990 73.27082 26020 ft 437 kts 43°
2026-04-25 21:31 30.52649 73.30567 25224 ft 427 kts 43°
2026-04-25 21:31 30.54602 73.33127 24644 ft 424 kts 43°
2026-04-25 21:31 30.56610 73.35756 24061 ft 436 kts 43°
2026-04-25 21:31 30.58607 73.38380 23459 ft 431 kts 44°
2026-04-25 21:32 30.60563 73.40955 22869 ft 423 kts 44°
2026-04-25 21:32 30.62489 73.43490 22298 ft 416 kts 44°
2026-04-25 21:32 30.64385 73.45984 21733 ft 410 kts 44°
2026-04-25 21:32 30.66251 73.48441 21169 ft 405 kts 44°
2026-04-25 21:33 30.68109 73.50886 20616 ft 410 kts 44°
2026-04-25 21:33 30.70028 73.53412 20052 ft 412 kts 44°
2026-04-25 21:33 30.71900 73.55885 19481 ft 406 kts 45°
2026-04-25 21:33 30.73743 73.58320 18924 ft 400 kts 45°
2026-04-25 21:34 30.75561 73.60721 18382 ft 393 kts 45°
2026-04-25 21:34 30.77345 73.63079 17850 ft 388 kts 45°
2026-04-25 21:34 30.79110 73.65413 17322 ft 383 kts 46°
2026-04-25 21:34 30.80863 73.67744 16765 ft 379 kts 46°
2026-04-25 21:35 30.82626 73.70085 16250 ft 387 kts 46°
2026-04-25 21:35 30.84396 73.72433 15728 ft 386 kts 46°
2026-04-25 21:35 30.86134 73.74754 15208 ft 379 kts 46°
2026-04-25 21:35 30.87861 73.77067 14704 ft 372 kts 46°
2026-04-25 21:36 30.89565 73.79339 14205 ft 366 kts 45°
2026-04-25 21:36 30.91221 73.81543 13703 ft 361 kts 46°
2026-04-25 21:36 30.92858 73.83720 13186 ft 356 kts 45°
2026-04-25 21:36 30.94477 73.85873 12681 ft 351 kts 45°
2026-04-25 21:37 30.96096 73.88027 12204 ft 346 kts 45°
2026-04-25 21:37 30.97152 73.89434 11890 ft 344 kts 45°
2026-04-25 21:37 30.99246 73.92222 11260 ft 339 kts 45°
2026-04-25 21:37 31.00787 73.94275 10805 ft 335 kts 45°
2026-04-25 21:38 31.02308 73.96304 10444 ft 329 kts 46°
2026-04-25 21:38 31.03815 73.98315 10072 ft 323 kts 45°
2026-04-25 21:38 31.05280 74.00269 9698 ft 318 kts 46°
2026-04-25 21:38 31.06727 74.02201 9314 ft 315 kts 46°
2026-04-25 21:39 31.08173 74.04133 8882 ft 313 kts 46°
2026-04-25 21:39 31.09603 74.06042 8456 ft 312 kts 46°
2026-04-25 21:39 31.11038 74.07956 8009 ft 311 kts 46°
2026-04-25 21:39 31.12283 74.09610 7682 ft 308 kts 46°
2026-04-25 21:40 31.13688 74.11484 7324 ft 304 kts 46°
2026-04-25 21:40 31.15084 74.13347 6970 ft 301 kts 46°
2026-04-25 21:40 31.16455 74.15176 6618 ft 298 kts 45°
2026-04-25 21:40 31.17838 74.16945 6270 ft 294 kts 45°
2026-04-25 21:41 31.19231 74.18715 5915 ft 292 kts 45°
2026-04-25 21:41 31.20595 74.20448 5567 ft 289 kts 45°
2026-04-25 21:41 31.21952 74.22169 5217 ft 287 kts 45°
2026-04-25 21:41 31.23273 74.23914 4889 ft 283 kts 50°
2026-04-25 21:42 31.24435 74.25743 4589 ft 280 kts 52°
2026-04-25 21:42 31.25593 74.27589 4280 ft 276 kts 52°
2026-04-25 21:42 31.26728 74.29394 4008 ft 271 kts 52°
2026-04-25 21:42 31.27832 74.31148 3775 ft 265 kts 52°
2026-04-25 21:43 31.28911 74.32867 3595 ft 257 kts 52°
2026-04-25 21:43 31.29955 74.34525 3425 ft 251 kts 52°
2026-04-25 21:43 31.30979 74.36154 3252 ft 245 kts 52°
2026-04-25 21:43 31.31980 74.37747 3114 ft 237 kts 52°
2026-04-25 21:44 31.33039 74.39160 2983 ft 226 kts 33°
2026-04-25 21:44 31.34424 74.39923 2934 ft 206 kts 11°
2026-04-25 21:44 31.37093 74.40241 2973 ft 173 kts
2026-04-25 21:45 31.38333 74.40255 2967 ft 165 kts
2026-04-25 21:45 31.39117 74.40253 2906 ft 156 kts
2026-04-25 21:45 31.40628 74.40256 2595 ft 152 kts
2026-04-25 21:45 31.41726 74.40268 2375 ft 149 kts
2026-04-25 21:46 31.42803 74.40285 2218 ft 143 kts
2026-04-25 21:46 31.43860 74.40303 1974 ft 137 kts
2026-04-25 21:46 31.44435 74.40309 1886 ft 129 kts
2026-04-25 21:47 31.44833 74.40312 1782 ft 129 kts
2026-04-25 21:47 31.45176 74.40321 1678 ft 129 kts
2026-04-25 21:47 31.46166 74.40351 1432 ft 129 kts
2026-04-25 21:47 31.47116 74.40368 1282 ft 127 kts
2026-04-25 21:48 31.48095 74.40385 1179 ft 132 kts
2026-04-25 21:48 31.49119 74.40409 1035 ft 137 kts
2026-04-25 21:48 31.50176 74.40427 848 ft 143 kts 360°
2026-04-25 21:48 31.51250 74.40440 706 ft 134 kts
2026-04-25 21:49 31.52086 74.40455 708 ft 81 kts
2026-04-25 21:49 31.52559 74.40462 711 ft 45 kts
2026-04-25 21:49 31.52857 74.40471 711 ft 33 kts
2026-04-25 21:49 31.53057 74.40552 711 ft 23 kts 30°
2026-04-25 21:50 31.53156 74.40647 711 ft 8 kts 72°
2026-04-25 21:50 31.53120 74.40688 711 ft 8 kts 182°
2026-04-25 21:50 31.53036 74.40684 711 ft 13 kts 181°
2026-04-25 21:50 31.52959 74.40682 711 ft 15 kts 180°
2026-04-25 21:51 31.52802 74.40684 711 ft 16 kts 181°
2026-04-25 21:51 31.52679 74.40679 711 ft 17 kts 182°
2026-04-25 21:51 31.52554 74.40676 711 ft 17 kts 179°
2026-04-25 21:51 31.52451 74.40678 711 ft 12 kts 169°
2026-04-25 21:52 31.52407 74.40740 711 ft 9 kts 93°
2026-04-25 21:52 31.52400 74.40813 711 ft 8 kts 117°
2026-04-25 21:52 31.52349 74.40850 711 ft 7 kts 178°
2026-04-25 21:52 31.52316 74.40866 711 ft 5 kts 102°
2026-04-25 21:53 31.52315 74.40919 711 ft 6 kts 90°
2026-04-25 21:53 31.52315 74.40954 711 ft 2 kts 91°
2026-04-25 21:53 31.52315 74.40959 711 ft 0 kts 91°